Regional Weather Roundup
Issued by NWS Raleigh/Durham, NC

Current Version | Previous Version | Graphics & Text | Print | Product List | Glossary On
Versions: 1 2 3 4 5 6 7 8 9 10 11 12 13 14 15 16 17 18 19 20 21 22 23 24 25 26 27 28 29 30 31 32 33 34 35 36 37 38 39 40 41 42 43 44 45 46 47 48 49 50
000
ASUS42 KRAH 261210
RWRRAH
NORTH CAROLINA WEATHER ROUNDUP
NATIONAL WEATHER SERVICE RALEIGH NC
700 AM EST MON JAN 26 2015

NOTE: "FAIR" INDICATES FEW OR NO CLOUDS BELOW 12,000 FEET WITH NO
SIGNIFICANT WEATHER AND/OR OBSTRUCTIONS TO VISIBILITY.

NCZ001-053-055-056-065-067-261300-
WESTERN NORTH CAROLINA

CITY           SKY/WX    TMP DP  RH WIND       PRES   REMARKS
ASHEVILLE      CLOUDY    37  32  82 N6        29.64R WCI  32
JEFFERSON      LGT RAIN  33  32  98 CALM      29.59S
MORGANTON      LGT RAIN  35  33  93 CALM      29.67R
HICKORY        LGT RAIN  36  31  82 N6        29.62R WCI  31
RUTHERFORDTON  CLOUDY    35  32  90 NW3       29.63R
MOUNT AIRY     CLOUDY    41  35  80 NE5       29.66R
BOONE          CLOUDY    32  32 100 CALM      29.60S
$$

NCZ021-022-025-041-071-084-088-261300-
CENTRAL NORTH CAROLINA

CITY           SKY/WX    TMP DP  RH WIND       PRES   REMARKS
CHARLOTTE      MOCLDY    40  32  73 SE5       29.64S
GREENSBORO     LGT RAIN  40  35  83 CALM      29.64S
WINSTON-SALEM  CLOUDY    37  33  85 NE3       29.65S
RALEIGH-DURHAM LGT RAIN  39  37  92 CALM      29.70R
FORT BRAGG     LGT RAIN  41  39  93 N2        29.67S
FAYETTEVILLE   CLOUDY    40  38  93 CALM      29.67F
BURLINGTON     LGT RAIN  40  37  89 SE6       29.66S
LAURINBURG     CLOUDY    42  39  89 CALM      29.67S
$$

NCZ011-015-027-028-043-044-047-080-103-261300-
NORTHEASTERN NORTH CAROLINA

CITY           SKY/WX    TMP DP  RH WIND       PRES   REMARKS
ROCKY MT-WILSO MOCLDY    36  35  96 CALM      29.70F
GREENVILLE     MOCLDY    37  37 100 CALM      29.73S
WASHINGTON     CLOUDY    37  37  97 CALM      29.69F
ELIZABETH CITY CLOUDY    42  38  85 CALM      29.72F
MANTEO         CLOUDY    46  43  87 NE5       29.70F
CAPE HATTERAS  CLOUDY    49  47  93 W3        29.70F
$$

NCZ078-087-090-091-093-098-101-261300-
SOUTHEASTERN NORTH CAROLINA

CITY           SKY/WX    TMP DP  RH WIND       PRES   REMARKS
LUMBERTON      CLOUDY    43  40  89 CALM      29.67S
GOLDSBORO      CLOUDY    37  37 100 CALM      29.67S
KINSTON        CLOUDY    37  37 100 CALM      29.69F
KENANSVILLE    CLOUDY    37  37 100 CALM      29.70S
NEW BERN       CLOUDY    38  35  89 CALM      29.70S
CHERRY POINT   MOCLDY    37  35  92 E3        29.71S
BEAUFORT       MOCLDY    40  39  97 CALM      29.70S
JACKSONVILLE   CLOUDY    39  38  96 CALM      29.67F
WILMINGTON     CLOUDY    49  45  86 SW7       29.67F
$$



USA.gov is the U.S. government's official web portal to all federal, state and local government web resources and services.